Regional Weather Roundup
Issued by NWS Charleston, SC

Current Version | Previous Version | Graphics & Text | Print | Product List | Glossary On
Versions: 1 2 3 4 5 6 7 8 9 10 11 12 13 14 15 16 17 18 19 20 21 22 23 24 25 26 27 28 29 30 31 32 33 34 35 36 37 38 39 40 41 42 43 44 45 46 47 48 49 50
000 ASUS42 KCHS 250127 RWRCHS REGIONAL WEATHER ROUNDUP NATIONAL WEATHER SERVICE CHARLESTON SC 900 PM EDT MON APR 24 2017 NOTE: "FAIR" INDICATES FEW OR NO CLOUDS BELOW 12,000 FEET WITH NO SIGNIFICANT WEATHER AND/OR OBSTRUCTIONS TO VISIBILITY. NOT ALL STATIONS ARE QUALITY CONTROLLED. USE DATA WITH CAUTION... ESPECIALLY DEWPOINT OBSERVATIONS. SCZ027-030-031-034>040-042>050-250200- ...SOUTHEAST SOUTH CAROLINA... CITY SKY/WX TMP DP RH WIND PRES REMARKS N CHARLESTON PTCLDY 65 62 90 CALM 29.62R WATERFRONT PRK N/A 70 63 78 W5 29.60R JOHNS ISLAND FAIR 66 59 77 W9 29.63R PINOPOLIS N/A 66 64 94 NE8 29.52F MONCKS CORNER DRIZZLE 63 61 94 CALM 29.62R SUMMERVILLE CLOUDY 63 63 100 NW5 29.64R BEAUFORT MCAS PTCLDY 66 59 78 W8 29.65R BEAUFORT ARPT FAIR 66 55 68 W10 29.65R HILTON HEAD IS CLEAR 68 57 68 W7 29.66R WALTERBORO CLOUDY 61 59 94 W8 29.66R ALLENDALE LGT RAIN 61 59 94 VRB3 29.66R ...SOUTHERN MIDLANDS AND PEE DEE... CITY SKY/WX TMP DP RH WIND PRES REMARKS GEORGETOWN FAIR 63 63 100 E5 29.63R KINGSTREE DRIZZLE N/A N/A N/A N6 29.63S ORANGEBURG LGT RAIN 61 59 93 W3 29.64S BARNWELL DRIZZLE 61 61 100 NW6 29.67R AIKEN DRIZZLE 55 54 94 NW7 29.72S MANNING CLOUDY 61 59 94 MISG 29.63S COLUMBIA CLOUDY 60 57 89 N8 29.67R FOG SUMTER CLOUDY 61 58 90 N8 29.63F FLORENCE CLOUDY 59 58 96 N9 29.64F MYRTLE BEACH MOCLDY 64 63 94 NE12 29.64S N MYRTLE BEACH LGT RAIN 63 63 100 N5 29.62S $$ GAZ063-065-086>088-099>101-113>116-118-119-134>141-150-250200- ...SOUTHEAST GEORGIA... CITY SKY/WX TMP DP RH WIND PRES REMARKS SAVANNAH ARPT MOCLDY 66 54 65 NW14 29.68R HUNTER AAF MOCLDY 66 58 76 NW17 29.65R FORT STEWART CLOUDY 66 55 69 W10 29.67R STATESBORO CLOUDY 61 61 100 NW8 29.70R FOG SYLVANIA RAIN N/A N/A N/A NW8 29.70R CLAXTON MOCLDY 61 61 100 W7 29.70R ...CSRA...CENTRAL AND FAR SOUTHEAST GEORGIA... CITY SKY/WX TMP DP RH WIND PRES REMARKS THOMSON CLOUDY 57 55 95 E9 29.77S AUGUSTA-BUSH LGT RAIN 60 57 89 N12 29.70R FOG AUGUSTA-DANIEL LGT RAIN 58 54 86 N8 29.71S FOG SWAINSBORO FAIR 59 59 100 NW3 29.71F VIDALIA CLOUDY 63 55 77 NW8 29.72R EASTMAN MOCLDY 60 50 69 CALM 29.74F HAZLEHURST MOCLDY 63 58 82 NW5 29.72R ALMA PTCLDY 62 56 80 W5 29.71R WAYCROSS PTCLDY 65 58 79 W5 29.71S JESUP FAIR 64 54 68 W6 29.71R BAXLEY FAIR 63 63 100 NW5 29.71R BRUNSWICK CLEAR 63 55 77 W6 29.71R SAINT SIMONS LGT RAIN 67 51 56 W10G21 29.69R $$ SCZ027-028-034-036>038-045-046-048>050-GAZ119-141-250200- ...LAKE AND SUPPLEMENTAL COASTAL OBSERVATIONS... STATION/POSITION TIME TEMP WIND PRES WAVE SWELL AIR SEA DIR/SP/G HT/PER HT/PER/DIR (UTC) (F) (DEG/KT/KT) (MB) (FT/S) (FT/S/D) WINYAH BAY 0045 67 80/ 12 1003.0S LAKE MURRAY 0020 58 350/ 2/ 9 1004.4 ACE BASIN NERRS 0030 68 280/ 3 1003.0S FORT PULASKI 0100 68 75 320/ 14/ 17 1004.7 SAPELO ISLAND 0045 68 280/ 12 1005.0R $$ ANZ835-935-AMZ111-154-330-350-352-354-370-450-454-472-250200- ...C-MAN AND BUOY OBSERVATIONS... STATION/POSITION TIME TEMP WIND PRES WAVE SWELL AIR SEA DIR/SP/G HT/PER HT/PER/DIR (UTC) (F) (DEG/KT/KT) (MB) (FT/S) (FT/S/D) BUOY 41004 0050 72 72 220/ 12/ 16 1002.8R 7/ 8 5/130/ 8 BUOY 41008 0050 69 71 260/ 17/ 21 1004.0R 4/ 9 3/ 90/ 9 FOLLY BEACH CMAN 0100 69 270/ 5/ 7 1003.6R CAPERS NEARSHORE 0108 75 71 280/ 14/ 17 1002.3R FRIPP NEARSHORE 0108 70 72 310/ 17/ 23 1003.6R STATION/POSITION TIME TEMP WIND PRES WAVE SWELL AIR SEA DIR/SP/G HT/PER HT/PER/DIR (UTC) (F) (DEG/KT/KT) (MB) (FT/S) (FT/S/D) 5E ST. MARYS GA 0100 73 N/A 3/ 9 2/ 90/12 FRYING PAN BUOY 0100 69 160/ 6/ 10 1003.0 BUOY 41025 0050 75 78 120/ 31/ 37 1006.1R 13/ 9 CAPE LOOKOUT NC 0100 72 120/ 24/ 27 1004.1F BUOY 41002 0050 74 75 200/ 17/ 21 1002.0R 15/10 11/110/10 BUOY 41010 0100 77 190/ 16/ 17 1004.5 ST AUGUSTINE FL 0100 68 74 300/ 8/ 12 1006.9R $$

USA.gov is the U.S. government's official web portal to all federal, state and local government web resources and services.